Weather History for Brooksville, FL

Change the Weather History Date:

Wednesday, March 6, 2013

  Actual Average Record
Temperature  
Mean Temperature 58 °F -  
Max Temperature 66 °F 73 °F 86 °F (2003)
Min Temperature 48 °F 49 °F 32 °F (2007)
Degree Days  
Heating Degree Days 6    
Growing Degree Days 8 (Base 50)    
Moisture  
Dew Point 44 °F    
Average Humidity 62    
Maximum Humidity 88    
Minimum Humidity 35    
Precipitation  
Precipitation 0.00 in - - ()
Sea Level Pressure  
Sea Level Pressure 30.06 in    
Wind  
Wind Speed 13 mph (WNW)    
Max Wind Speed 24 mph    
Max Gust Speed 33 mph    
Visibility 10 miles    
Events Rain    
Averages and records for this station are not official NWS values.
T = Trace of Precipitation, MM = Missing Value Source: NWS Daily Summary

Daily Weather History Graph

Daily Weather History Graph

Search for Another Location

Airport:

Trip Planner

Search our weather history database for the weather conditions in past years. The results will help you decide how hot, cold, wet, or windy it might be!

Date:

Astronomy

Mar. 06, 2013 Rise Set
Actual Time 6:49 AM EST 6:33 PM EST
Civil Twilight 6:25 AM EST 6:56 PM EST
Nautical Twilight 5:58 AM EST 7:24 PM EST
Astronomical Twilight 5:31 AM EST 7:51 PM EST
Moon 2:37 AM EST (3/6) 1:33 PM EST (3/6)
Length of Visible Light 12h 31m
Length of Day
11h 44m
Waning Crescent, 30% of the Moon is Illuminated
Mar 6
Waning Crescent
Mar 11
New
Mar 19
First Quarter
Mar 27
Full
Apr 3
Last Quarter

Hourly Weather History & Observations

Time (EST) Temp. Dew Point Humidity Pressure Visibility Wind Dir Wind Speed Gust Speed Precip Events Conditions
12:53 AM 62.1 °F 57.9 °F 86% 30.03 in 10.0 mi SW 6.9 mph - N/A   Clear
1:53 AM 64.9 °F 61.0 °F 87% 30.01 in 10.0 mi SW 10.4 mph - 0.00 in Rain Light Rain
2:28 AM 66.2 °F 62.6 °F 88% 30.00 in 10.0 mi WSW 9.2 mph - 0.00 in   Overcast
2:44 AM 66.2 °F 62.6 °F 88% 29.99 in 10.0 mi SW 11.5 mph - 0.00 in   Overcast
2:51 AM 66.2 °F 62.6 °F 88% 29.98 in 10.0 mi WSW 11.5 mph 18.4 mph 0.00 in   Mostly Cloudy
2:53 AM 66.0 °F 62.1 °F 87% 29.98 in 10.0 mi WSW 11.5 mph 18.4 mph 0.00 in   Mostly Cloudy
3:17 AM 66.2 °F 62.6 °F 88% 29.98 in 10.0 mi WSW 15.0 mph - 0.00 in   Mostly Cloudy
3:44 AM 66.2 °F 62.6 °F 88% 29.97 in 10.0 mi WSW 13.8 mph - 0.00 in Rain Light Rain
3:53 AM 66.9 °F 62.1 °F 84% 29.97 in 10.0 mi West 13.8 mph - 0.00 in Rain Light Rain
4:04 AM 62.6 °F 55.4 °F 77% 29.98 in 10.0 mi NW 18.4 mph 32.2 mph 0.00 in   Overcast
4:16 AM 60.8 °F 55.4 °F 82% 30.00 in 10.0 mi NW 17.3 mph 25.3 mph 0.00 in   Overcast
4:53 AM 57.9 °F 51.1 °F 78% 30.01 in 10.0 mi NW 18.4 mph 27.6 mph 0.00 in   Overcast
5:11 AM 57.2 °F 46.4 °F 67% 30.02 in 10.0 mi WNW 19.6 mph 27.6 mph N/A   Overcast
5:53 AM 55.0 °F 45.0 °F 69% 30.04 in 10.0 mi WNW 17.3 mph 24.2 mph N/A   Overcast
6:53 AM 53.1 °F 44.1 °F 71% 30.09 in 10.0 mi NNW 10.4 mph 19.6 mph N/A   Mostly Cloudy
7:53 AM 51.1 °F 34.0 °F 52% 30.14 in 10.0 mi NNW 13.8 mph 23.0 mph N/A   Clear
8:53 AM 53.1 °F 34.0 °F 48% 30.15 in 10.0 mi NNW 17.3 mph 25.3 mph N/A   Clear
9:53 AM 55.9 °F 37.0 °F 49% 30.15 in 10.0 mi NW 19.6 mph 23.0 mph N/A   Clear
10:53 AM 57.9 °F 33.1 °F 39% 30.13 in 10.0 mi WNW 19.6 mph 26.5 mph N/A   Unknown
11:53 AM 59.0 °F 36.0 °F 42% 30.12 in 10.0 mi WNW 17.3 mph 29.9 mph N/A   Clear
12:53 PM 59.0 °F 35.1 °F 41% 30.10 in 10.0 mi West 18.4 mph 27.6 mph N/A   Clear
1:53 PM 59.0 °F 34.0 °F 39% 30.07 in 10.0 mi WNW 21.9 mph 31.1 mph N/A   Clear
2:53 PM 59.0 °F 33.1 °F 38% 30.05 in 10.0 mi WNW 19.6 mph 31.1 mph N/A   Clear
3:53 PM 59.0 °F 30.9 °F 35% 30.05 in 10.0 mi WNW 24.2 mph 33.4 mph N/A   Clear
4:53 PM 57.0 °F 32.0 °F 39% 30.05 in 10.0 mi WNW 23.0 mph 29.9 mph N/A   Clear
5:53 PM 55.9 °F 33.1 °F 42% 30.07 in 10.0 mi WNW 19.6 mph 27.6 mph N/A   Clear
6:53 PM 54.0 °F 35.1 °F 49% 30.09 in 10.0 mi WNW 12.7 mph - N/A   Clear
7:53 PM 54.0 °F 34.0 °F 47% 30.10 in 10.0 mi NW 10.4 mph - N/A   Clear
8:53 PM 54.0 °F 34.0 °F 47% 30.13 in 10.0 mi NW 10.4 mph - N/A   Clear
9:53 PM 53.1 °F 34.0 °F 48% 30.15 in 10.0 mi NW 8.1 mph - N/A   Clear
10:53 PM 51.1 °F 30.9 °F 46% 30.17 in 10.0 mi NNW 9.2 mph - N/A   Clear
11:53 PM 48.9 °F 30.0 °F 48% 30.17 in 10.0 mi North 11.5 mph - N/A   Clear